Location: ????????
(55.4000°N, 39.1167°E)
Time: 02:27:55
(UTC+00:00)

CENTAUR R/B - Pass Details

Date: 19 May 2025
Orbit: 645 x 1537 km, 63.4° (Epoch: 14 June)

Event Time Altitude Azimuth Distance (km) Brightness Sun altitude
Rises 23:15:54 0° 310° (NW) 4,236 6.0 -10.7°
Reaches altitude 10° 23:19:18 10° 297° (WNW) 3,394 5.3 -10.5°
Maximum altitude 23:25:21 22° 251° (WSW) 2,731 4.4 -10.1°
Enters shadow 23:31:26 11° 207° (SSW) 3,579 4.7 -9.6°
